Tracking 35275 objects as of 8-Sep-2026
HD Live streaming from Space Station
objects crossing your sky now

STARLINK-33899

Track STARLINK-33899 now!
10-day predictions
STARLINK-33899 is classified as:


NORAD ID: 63799
Int'l Code: 2025-091AA
Launch date: May 2, 2025
Source: United States (US)
Launch site: AIR FORCE EASTERN TEST RANGE (AFETR)
Your satellite tracking list
Your tracking list is empty




NASA's NSSDC Master Catalog

Two Line Element Set (TLE):
1 63799U 25091AA  26250.99145786  .00013248  00000-0  48989-3 0  9994
2 63799  43.0026 102.9125 0001432 263.7294  96.3395 15.27591935 76896
Source of the keplerian elements: AFSPC